sat.trackr.live / text

‹ back to catalog

BRITE-CA1 (TORONTO)

NORAD 40020 · 2014-033L

PAYLOAD ACTIVE UNKNOWN

§ Identity

Operator
Country
CA
Launch date
2014-06-19
Launch site
DLS
Launch vehicle
Mass (kg)
RCS (m²)
0.10

Purposes: science, tech_demo

External: N2YO · Heavens-Above · Gunter

§ Orbital elements

Epoch: 2026-05-24T22:28:33.129984Z

Period
97.78 min
Inclination
97.9708°
Eccentricity
0.0078372
Mean motion
14.72639741 rev/d
Perigee alt
597.6 km
Apogee alt
707.8 km
Semi-major
7,030.8 km
B*
8.6157e-5
RAAN
274.2977°
Arg perigee
352.3792°
Mean anomaly
7.6219°
Rev number
63,879

§ Raw data

BRITE-CA1 (TORONTO)1 40020U 14033L   26144.93649456  .00000521  00000+0  86157-4 0  99982 40020  97.9708 274.2977 0078372 352.3792   7.6219 14.72639741638796

JSON: /api/v1/satellites/40020 · /tle

For live sub-satellite position, see the globe view (requires WebGL).

§ Visibility from observer

Set your observer location to see the next 7 days of passes ≥ 10°. The values pass through the URL so the page stays shareable.

No JS? Fill the form by hand. The geolocation button needs JavaScript.

§ Radio — SatNOGS DB

ModeDescriptionDownlinkUplink
FM Downlink 2.234 GHz

1 transmitter · refreshed weekly from db.satnogs.org